,,PressureMeas_1m,,PRMeasQMR101_1,,RHStat155_1m_1,,SRMeasQMS101R_1m,,TAStat155_1m_1,,GenWind_1,,GenWind_1,
2019-04-23, 00:00:06,VALID,915.455,VALID,0.0,VALID,97.924,VALID,-0.002,VALID,21.085,VALID,77.0,VALID,0.0,
2019-04-23, 00:01:06,VALID,915.45,VALID,0.0,VALID,97.778,VALID,-0.009,VALID,21.033,VALID,56.0,VALID,0.0,
2019-04-23, 00:02:06,VALID,915.428,VALID,0.0,VALID,97.7,VALID,0.01,VALID,20.996,VALID,36.0,VALID,0.0,
2019-04-23, 00:03:06,VALID,915.403,VALID,0.0,VALID,97.756,VALID,-0.009,VALID,20.97,VALID,360.0,VALID,0.0,
2019-04-23, 00:04:06,VALID,915.393,VALID,0.0,VALID,97.862,VALID,-0.012,VALID,20.954,INVALID,360.0,VALID,0.0,
2019-04-23, 00:05:06,VALID,915.385,VALID,0.0,VALID,97.905,VALID,-0.008,VALID,20.918,INVALID,360.0,VALID,0.0,
2019-04-23, 00:06:06,VALID,915.382,VALID,0.0,VALID,97.93,VALID,-0.007,VALID,20.868,INVALID,360.0,VALID,0.0,
2019-04-23, 00:07:06,VALID,915.34,VALID,0.0,VALID,98.046,VALID,-0.002,VALID,20.895,VALID,94.0,VALID,0.0,
2019-04-23, 00:08:06,VALID,915.325,VALID,0.0,VALID,98.205,VALID,0.013,VALID,20.942,VALID,101.0,VALID,0.0,
2019-04-23, 00:09:06,VALID,915.331,VALID,0.0,VALID,98.156,VALID,0.007,VALID,20.938,VALID,94.0,VALID,0.0,
2019-04-23, 00:10:06,VALID,915.32,VALID,0.0,VALID,98.169,VALID,0.008,VALID,20.949,VALID,95.0,VALID,0.0,
2019-04-23, 00:11:06,VALID,915.33,VALID,0.0,VALID,98.098,VALID,0.005,VALID,20.942,VALID,95.0,VALID,0.0,
2019-04-23, 00:12:06,VALID,915.339,VALID,0.0,VALID,98.027,VALID,0.014,VALID,20.939,VALID,95.0,VALID,0.0,
2019-04-23, 00:13:06,VALID,915.338,VALID,0.0,VALID,97.809,VALID,0.016,VALID,20.881,VALID,95.0,VALID,0.0,
2019-04-23, 00:14:06,VALID,915.32,VALID,0.0,VALID,97.527,VALID,0.013,VALID,20.792,VALID,95.0,VALID,0.0,
2019-04-23, 00:15:06,VALID,915.305,VALID,0.0,VALID,97.46,VALID,-0.001,VALID,20.771,VALID,95.0,VALID,0.0,
2019-04-23, 00:16:06,VALID,915.277,VALID,0.0,VALID,97.599,VALID,-0.021,VALID,20.772,VALID,95.0,VALID,0.0,
2019-04-23, 00:17:06,VALID,915.283,VALID,0.0,VALID,97.526,VALID,-0.009,VALID,20.712,VALID,94.0,VALID,0.0,
2019-04-23, 00:18:06,VALID,915.26,VALID,0.0,VALID,97.646,VALID,-0.016,VALID,20.707,VALID,77.0,VALID,0.0,
2019-04-23, 00:19:06,VALID,915.217,VALID,0.0,VALID,97.77,VALID,-0.022,VALID,20.693,VALID,56.0,VALID,0.0,
2019-04-23, 00:20:06,VALID,915.218,VALID,0.0,VALID,97.879,VALID,-0.014,VALID,20.704,VALID,60.0,VALID,0.0,
2019-04-23, 00:21:06,VALID,915.19,VALID,0.0,VALID,98.134,VALID,-0.022,VALID,20.77,VALID,81.0,VALID,0.0,
2019-04-23, 00:22:06,VALID,915.162,VALID,0.0,VALID,98.167,VALID,-0.02,VALID,20.775,VALID,98.0,VALID,0.0,
2019-04-23, 00:23:06,VALID,915.139,VALID,0.0,VALID,98.139,VALID,-0.022,VALID,20.77,VALID,98.0,VALID,0.0,
2019-04-23, 00:24:06,VALID,915.124,VALID,0.0,VALID,98.273,VALID,-0.022,VALID,20.83,VALID,99.0,VALID,0.0,
2019-04-23, 00:25:06,VALID,915.132,VALID,0.0,VALID,98.218,VALID,-0.02,VALID,20.842,VALID,90.0,VALID,0.0,
2019-04-23, 00:26:06,VALID,915.117,VALID,0.0,VALID,98.253,VALID,-0.011,VALID,20.889,VALID,86.0,VALID,0.0,
2019-04-23, 00:27:06,VALID,915.107,VALID,0.0,VALID,98.193,VALID,-0.028,VALID,20.878,VALID,94.0,VALID,0.0,
2019-04-23, 00:28:06,VALID,915.088,VALID,0.0,VALID,98.152,VALID,-0.012,VALID,20.879,VALID,106.0,VALID,0.0,
2019-04-23, 00:29:06,VALID,915.012,VALID,0.0,VALID,98.173,VALID,0.012,VALID,20.894,VALID,116.0,VALID,0.0,
2019-04-23, 00:30:06,VALID,914.997,VALID,0.0,VALID,98.19,VALID,-0.002,VALID,20.922,VALID,118.0,VALID,0.0,
2019-04-23, 00:31:06,VALID,914.963,VALID,0.0,VALID,98.231,VALID,-0.029,VALID,20.936,VALID,121.0,VALID,0.0,
2019-04-23, 00:32:06,VALID,914.935,VALID,0.0,VALID,98.177,VALID,-0.029,VALID,20.929,VALID,129.0,VALID,0.0,
2019-04-23, 00:33:06,VALID,914.945,VALID,0.0,VALID,98.149,VALID,-0.025,VALID,20.924,VALID,108.0,VALID,0.0,
2019-04-23, 00:34:06,VALID,914.956,VALID,0.0,VALID,98.123,VALID,-0.008,VALID,20.9,VALID,106.0,VALID,0.0,
2019-04-23, 00:35:06,VALID,914.953,VALID,0.0,VALID,98.069,VALID,-0.018,VALID,20.868,VALID,105.0,VALID,0.0,
2019-04-23, 00:36:06,VALID,914.964,VALID,0.0,VALID,97.954,VALID,-0.019,VALID,20.786,VALID,102.0,VALID,0.0,
2019-04-23, 00:37:06,VALID,914.936,VALID,0.0,VALID,97.955,VALID,-0.033,VALID,20.747,VALID,89.0,VALID,0.0,
2019-04-23, 00:38:06,VALID,914.946,VALID,0.0,VALID,97.922,VALID,-0.025,VALID,20.723,VALID,80.0,VALID,0.0,
2019-04-23, 00:39:06,VALID,914.931,VALID,0.0,VALID,98.083,VALID,-0.009,VALID,20.763,VALID,74.0,VALID,0.0,
2019-04-23, 00:40:06,VALID,914.922,VALID,0.0,VALID,98.207,VALID,-0.021,VALID,20.801,VALID,85.0,VALID,0.0,
2019-04-23, 00:41:06,VALID,914.925,VALID,0.0,VALID,98.362,VALID,-0.011,VALID,20.854,VALID,87.0,VALID,0.0,
2019-04-23, 00:42:06,VALID,914.914,VALID,0.0,VALID,98.399,VALID,0.003,VALID,20.862,VALID,86.0,VALID,0.0,
2019-04-23, 00:43:06,VALID,914.888,VALID,0.0,VALID,98.328,VALID,-0.024,VALID,20.816,VALID,87.0,VALID,0.0,
2019-04-23, 00:44:06,VALID,914.915,VALID,0.0,VALID,98.363,VALID,-0.025,VALID,20.808,VALID,84.0,VALID,0.0,
2019-04-23, 00:45:06,VALID,914.895,VALID,0.0,VALID,98.384,VALID,0.002,VALID,20.789,VALID,82.0,VALID,0.0,
2019-04-23, 00:46:06,VALID,914.901,VALID,0.0,VALID,98.411,VALID,-0.007,VALID,20.767,VALID,84.0,VALID,0.0,
2019-04-23, 00:47:06,VALID,914.907,VALID,0.0,VALID,98.418,VALID,-0.011,VALID,20.749,VALID,86.0,VALID,0.0,
2019-04-23, 00:48:06,VALID,914.915,VALID,0.0,VALID,98.418,VALID,-0.007,VALID,20.732,VALID,86.0,VALID,0.0,
2019-04-23, 00:49:06,VALID,914.919,VALID,0.0,VALID,98.47,VALID,-0.005,VALID,20.726,VALID,72.0,VALID,0.0,
2019-04-23, 00:50:06,VALID,914.938,VALID,0.0,VALID,98.547,VALID,-0.001,VALID,20.74,VALID,298.0,VALID,0.0,
2019-04-23, 00:51:06,VALID,914.956,VALID,0.0,VALID,98.591,VALID,0.004,VALID,20.744,VALID,280.0,VALID,0.0,
2019-04-23, 00:52:06,VALID,914.952,VALID,0.0,VALID,98.653,VALID,0.017,VALID,20.745,VALID,278.0,VALID,0.0,
2019-04-23, 00:53:06,VALID,914.968,VALID,0.0,VALID,98.68,VALID,0.011,VALID,20.73,VALID,278.0,VALID,0.0,
2019-04-23, 00:54:06,VALID,914.965,VALID,0.0,VALID,98.713,VALID,-0.0,VALID,20.713,VALID,278.0,VALID,0.0,
2019-04-23, 00:55:06,VALID,914.966,VALID,0.0,VALID,98.711,VALID,0.008,VALID,20.683,VALID,278.0,VALID,0.0,
2019-04-23, 00:56:06,VALID,914.928,VALID,0.0,VALID,98.743,VALID,0.006,VALID,20.667,VALID,278.0,VALID,0.0,
2019-04-23, 00:57:06,VALID,914.919,VALID,0.0,VALID,98.786,VALID,0.003,VALID,20.665,VALID,278.0,VALID,0.0,
2019-04-23, 00:58:06,VALID,914.91,VALID,0.0,VALID,98.805,VALID,0.022,VALID,20.671,VALID,278.0,VALID,0.0,
2019-04-23, 00:59:06,VALID,914.926,VALID,0.0,VALID,98.844,VALID,0.017,VALID,20.678,VALID,278.0,VALID,0.0,
2019-04-23, 01:00:06,VALID,914.939,VALID,0.0,VALID,98.855,VALID,-0.002,VALID,20.691,VALID,260.0,VALID,0.0,
2019-04-23, 01:01:06,VALID,914.943,VALID,0.0,VALID,98.897,VALID,0.018,VALID,20.706,VALID,255.0,VALID,0.0,
2019-04-23, 01:02:06,VALID,914.965,VALID,0.0,VALID,98.947,VALID,0.007,VALID,20.723,INVALID,360.0,VALID,0.0,
2019-04-23, 01:03:06,VALID,914.975,VALID,0.0,VALID,98.964,VALID,0.014,VALID,20.721,INVALID,360.0,VALID,0.0,
2019-04-23, 01:04:06,VALID,915.007,VALID,0.0,VALID,99.01,VALID,0.018,VALID,20.751,INVALID,360.0,VALID,0.0,
2019-04-23, 01:05:06,VALID,915.036,VALID,0.0,VALID,99.049,VALID,0.002,VALID,20.761,VALID,326.0,VALID,0.0,
2019-04-23, 01:06:06,VALID,915.063,VALID,0.0,VALID,99.068,VALID,0.016,VALID,20.721,VALID,3.0,VALID,0.0,
2019-04-23, 01:07:06,VALID,915.083,VALID,0.0,VALID,99.051,VALID,0.003,VALID,20.698,VALID,8.0,VALID,0.0,
2019-04-23, 01:08:06,VALID,915.1,VALID,0.0,VALID,99.058,VALID,0.002,VALID,20.684,INVALID,360.0,VALID,0.0,
2019-04-23, 01:09:06,VALID,915.114,VALID,0.0,VALID,99.131,VALID,0.02,VALID,20.706,INVALID,360.0,VALID,0.0,
2019-04-23, 01:10:06,VALID,915.116,VALID,0.0,VALID,99.131,VALID,-0.01,VALID,20.707,INVALID,360.0,VALID,0.0,
2019-04-23, 01:11:06,VALID,915.107,VALID,0.0,VALID,99.142,VALID,-0.003,VALID,20.717,INVALID,360.0,VALID,0.0,
2019-04-23, 01:12:06,VALID,915.113,VALID,0.0,VALID,99.168,VALID,0.004,VALID,20.743,INVALID,360.0,VALID,0.0,
2019-04-23, 01:13:06,VALID,915.102,VALID,0.0,VALID,99.205,VALID,0.007,VALID,20.761,INVALID,360.0,VALID,0.0,
2019-04-23, 01:14:06,VALID,915.097,VALID,0.0,VALID,99.198,VALID,0.015,VALID,20.746,INVALID,360.0,VALID,0.0,
2019-04-23, 01:15:06,VALID,915.097,VALID,0.0,VALID,99.207,VALID,-0.01,VALID,20.758,VALID,24.0,VALID,0.0,
2019-04-23, 01:16:06,VALID,915.07,VALID,0.0,VALID,99.2,VALID,-0.014,VALID,20.755,VALID,13.0,VALID,0.0,
2019-04-23, 01:17:06,VALID,915.079,VALID,0.0,VALID,99.204,VALID,-0.011,VALID,20.775,VALID,21.0,VALID,0.0,
2019-04-23, 01:18:06,VALID,915.036,VALID,0.0,VALID,99.23,VALID,-0.008,VALID,20.793,INVALID,360.0,VALID,0.0,
2019-04-23, 01:19:06,VALID,915.023,VALID,0.0,VALID,99.241,VALID,-0.018,VALID,20.777,INVALID,360.0,VALID,0.0,
2019-04-23, 01:20:06,VALID,914.995,VALID,0.0,VALID,99.243,VALID,-0.029,VALID,20.788,VALID,27.0,VALID,0.0,
2019-04-23, 01:21:06,VALID,914.978,VALID,0.0,VALID,99.265,VALID,-0.005,VALID,20.804,INVALID,360.0,VALID,0.0,
2019-04-23, 01:22:06,VALID,914.943,VALID,0.0,VALID,99.278,VALID,0.003,VALID,20.826,INVALID,360.0,VALID,0.0,
2019-04-23, 01:23:06,VALID,914.948,VALID,0.0,VALID,99.289,VALID,0.001,VALID,20.844,INVALID,360.0,VALID,0.0,
2019-04-23, 01:24:06,VALID,914.952,VALID,0.0,VALID,99.272,VALID,-0.002,VALID,20.833,VALID,18.0,VALID,0.0,
2019-04-23, 01:25:06,VALID,914.954,VALID,0.0,VALID,99.272,VALID,-0.003,VALID,20.813,INVALID,360.0,VALID,0.0,
2019-04-23, 01:26:06,VALID,914.926,VALID,0.0,VALID,99.259,VALID,-0.021,VALID,20.793,VALID,6.0,VALID,0.0,
2019-04-23, 01:27:06,VALID,914.914,VALID,0.0,VALID,99.277,VALID,-0.017,VALID,20.788,VALID,11.0,VALID,0.0,
2019-04-23, 01:28:06,VALID,914.929,VALID,0.0,VALID,99.266,VALID,-0.006,VALID,20.789,VALID,1.0,VALID,0.0,
2019-04-23, 01:29:06,VALID,914.929,VALID,0.0,VALID,99.28,VALID,-0.001,VALID,20.779,VALID,358.0,VALID,0.0,
2019-04-23, 01:30:06,VALID,914.947,VALID,0.0,VALID,99.288,VALID,-0.002,VALID,20.778,VALID,8.0,VALID,0.0,
2019-04-23, 01:31:06,VALID,914.937,VALID,0.0,VALID,99.31,VALID,-0.0,VALID,20.798,VALID,356.0,VALID,0.0,
2019-04-23, 01:32:06,VALID,914.93,VALID,0.0,VALID,99.28,VALID,0.001,VALID,20.764,VALID,351.0,VALID,0.0,
2019-04-23, 01:33:06,VALID,914.927,VALID,0.0,VALID,99.292,VALID,-0.014,VALID,20.764,VALID,4.0,VALID,0.0,
2019-04-23, 01:34:06,VALID,914.924,VALID,0.0,VALID,99.324,VALID,-0.014,VALID,20.779,VALID,8.0,VALID,0.0,
2019-04-23, 01:35:06,VALID,914.923,VALID,0.0,VALID,99.303,VALID,0.014,VALID,20.777,VALID,344.0,VALID,0.0,
2019-04-23, 01:36:06,VALID,914.915,VALID,0.0,VALID,99.305,VALID,0.007,VALID,20.747,VALID,16.0,VALID,0.0,
2019-04-23, 01:37:06,VALID,914.909,VALID,0.0,VALID,99.282,VALID,-0.004,VALID,20.71,INVALID,360.0,VALID,0.0,
2019-04-23, 01:38:06,VALID,914.911,VALID,0.0,VALID,99.288,VALID,-0.016,VALID,20.699,VALID,30.0,VALID,0.0,
2019-04-23, 01:39:06,VALID,914.895,VALID,0.0,VALID,99.311,VALID,-0.011,VALID,20.734,VALID,44.0,VALID,0.0,
2019-04-23, 01:40:06,VALID,914.891,VALID,0.0,VALID,99.332,VALID,-0.019,VALID,20.764,VALID,14.0,VALID,0.0,
2019-04-23, 01:41:06,VALID,914.886,VALID,0.0,VALID,99.322,VALID,-0.006,VALID,20.72,INVALID,360.0,VALID,0.0,
2019-04-23, 01:42:06,VALID,914.872,VALID,0.0,VALID,99.322,VALID,-0.003,VALID,20.724,INVALID,360.0,VALID,0.0,
2019-04-23, 01:43:06,VALID,914.864,VALID,0.0,VALID,99.337,VALID,-0.001,VALID,20.729,VALID,351.0,VALID,0.0,
2019-04-23, 01:44:06,VALID,914.844,VALID,0.0,VALID,99.31,VALID,-0.002,VALID,20.709,VALID,4.0,VALID,0.0,
2019-04-23, 01:45:06,VALID,914.827,VALID,0.0,VALID,99.345,VALID,-0.009,VALID,20.74,VALID,354.0,VALID,0.0,
2019-04-23, 01:46:06,VALID,914.811,VALID,0.0,VALID,99.335,VALID,-0.012,VALID,20.731,INVALID,360.0,VALID,0.0,
2019-04-23, 01:47:06,VALID,914.793,VALID,0.0,VALID,99.333,VALID,-0.017,VALID,20.733,INVALID,360.0,VALID,0.0,
2019-04-23, 01:48:06,VALID,914.779,VALID,0.0,VALID,99.336,VALID,-0.027,VALID,20.76,INVALID,360.0,VALID,0.0,
2019-04-23, 01:49:06,VALID,914.764,VALID,0.0,VALID,99.363,VALID,-0.018,VALID,20.751,VALID,338.0,VALID,0.0,
2019-04-23, 01:50:06,VALID,914.738,VALID,0.0,VALID,99.328,VALID,-0.033,VALID,20.732,VALID,335.0,VALID,0.0,
2019-04-23, 01:51:06,VALID,914.723,VALID,0.0,VALID,99.343,VALID,-0.032,VALID,20.719,VALID,303.0,VALID,0.0,
2019-04-23, 01:52:06,VALID,914.698,VALID,0.0,VALID,99.347,VALID,-0.01,VALID,20.722,VALID,292.0,VALID,0.0,
2019-04-23, 01:53:06,VALID,914.667,VALID,0.0,VALID,99.348,VALID,-0.019,VALID,20.736,VALID,350.0,VALID,0.0,
2019-04-23, 01:54:06,VALID,914.657,VALID,0.0,VALID,99.354,VALID,-0.024,VALID,20.738,VALID,18.0,VALID,0.0,
2019-04-23, 01:55:06,VALID,914.648,VALID,0.0,VALID,99.36,VALID,-0.028,VALID,20.755,VALID,18.0,VALID,0.0,
2019-04-23, 01:56:06,VALID,914.637,VALID,0.0,VALID,99.397,VALID,-0.043,VALID,20.801,VALID,18.0,VALID,0.0,
2019-04-23, 01:57:06,VALID,914.624,VALID,0.0,VALID,99.381,VALID,-0.039,VALID,20.819,VALID,18.0,VALID,0.0,
2019-04-23, 01:58:06,VALID,914.627,VALID,0.0,VALID,99.374,VALID,-0.012,VALID,20.826,INVALID,360.0,VALID,0.0,
2019-04-23, 01:59:06,VALID,914.623,VALID,0.0,VALID,99.387,VALID,-0.034,VALID,20.841,INVALID,360.0,VALID,0.0,
2019-04-23, 02:00:06,VALID,914.594,VALID,0.0,VALID,99.393,VALID,-0.001,VALID,20.857,VALID,18.0,VALID,0.0,
2019-04-23, 02:01:06,VALID,914.587,VALID,0.0,VALID,99.378,VALID,0.025,VALID,20.835,VALID,18.0,VALID,0.0,
2019-04-23, 02:02:06,VALID,914.565,VALID,0.0,VALID,99.391,VALID,0.03,VALID,20.844,VALID,18.0,VALID,0.0,
2019-04-23, 02:03:06,VALID,914.531,VALID,0.0,VALID,99.361,VALID,0.027,VALID,20.854,VALID,18.0,VALID,0.0,
2019-04-23, 02:04:06,VALID,914.517,VALID,0.0,VALID,99.383,VALID,0.034,VALID,20.871,VALID,18.0,VALID,0.0,
2019-04-23, 02:05:06,VALID,914.477,VALID,0.0,VALID,99.381,VALID,0.022,VALID,20.882,VALID,18.0,VALID,0.0,
2019-04-23, 02:06:06,VALID,914.48,VALID,0.0,VALID,99.387,VALID,0.029,VALID,20.883,VALID,24.0,VALID,0.0,
2019-04-23, 02:07:06,VALID,914.485,VALID,0.0,VALID,99.376,VALID,0.037,VALID,20.863,VALID,26.0,VALID,0.0,
2019-04-23, 02:08:06,VALID,914.462,VALID,0.0,VALID,99.349,VALID,0.007,VALID,20.851,VALID,26.0,VALID,0.0,
2019-04-23, 02:09:06,VALID,914.454,VALID,0.0,VALID,99.351,VALID,0.016,VALID,20.833,VALID,19.0,VALID,0.0,
2019-04-23, 02:10:06,VALID,914.435,VALID,0.0,VALID,99.318,VALID,0.031,VALID,20.776,VALID,22.0,VALID,0.0,
2019-04-23, 02:11:06,VALID,914.456,VALID,0.0,VALID,99.334,VALID,0.026,VALID,20.768,VALID,22.0,VALID,0.0,
2019-04-23, 02:12:06,VALID,914.441,VALID,0.0,VALID,99.337,VALID,0.043,VALID,20.805,VALID,16.0,VALID,0.0,
2019-04-23, 02:13:06,VALID,914.456,VALID,0.0,VALID,99.349,VALID,0.046,VALID,20.795,VALID,15.0,VALID,0.0,
2019-04-23, 02:14:06,VALID,914.462,VALID,0.0,VALID,99.344,VALID,0.047,VALID,20.809,INVALID,360.0,VALID,0.0,
2019-04-23, 02:15:06,VALID,914.465,VALID,0.0,VALID,99.374,VALID,-0.001,VALID,20.834,INVALID,360.0,VALID,0.0,
2019-04-23, 02:16:06,VALID,914.446,VALID,0.0,VALID,99.336,VALID,0.001,VALID,20.808,INVALID,360.0,VALID,0.0,
2019-04-23, 02:17:06,VALID,914.433,VALID,0.0,VALID,99.327,VALID,0.021,VALID,20.829,INVALID,360.0,VALID,0.0,
2019-04-23, 02:18:06,VALID,914.394,VALID,0.0,VALID,99.345,VALID,0.0,VALID,20.845,VALID,359.0,VALID,0.0,
2019-04-23, 02:19:06,VALID,914.396,VALID,0.0,VALID,99.31,VALID,0.013,VALID,20.774,VALID,359.0,VALID,0.0,
2019-04-23, 02:20:06,VALID,914.363,VALID,0.0,VALID,99.315,VALID,0.003,VALID,20.764,VALID,357.0,VALID,0.0,
2019-04-23, 02:21:06,VALID,914.346,VALID,0.0,VALID,99.304,VALID,0.003,VALID,20.749,VALID,356.0,VALID,0.0,
2019-04-23, 02:22:06,VALID,914.319,VALID,0.0,VALID,99.305,VALID,-0.005,VALID,20.748,VALID,10.0,VALID,0.0,
2019-04-23, 02:23:06,VALID,914.303,VALID,0.0,VALID,99.308,VALID,0.011,VALID,20.751,VALID,341.0,VALID,0.0,
2019-04-23, 02:24:06,VALID,914.281,VALID,0.0,VALID,99.257,VALID,0.008,VALID,20.727,VALID,342.0,VALID,0.0,
2019-04-23, 02:25:06,VALID,914.237,VALID,0.0,VALID,99.266,VALID,0.016,VALID,20.749,VALID,345.0,VALID,0.0,
2019-04-23, 02:26:06,VALID,914.214,VALID,0.0,VALID,99.253,VALID,0.022,VALID,20.754,VALID,343.0,VALID,0.0,
2019-04-23, 02:27:06,VALID,914.193,VALID,0.0,VALID,99.221,VALID,0.02,VALID,20.75,VALID,342.0,VALID,0.0,
2019-04-23, 02:28:06,VALID,914.173,VALID,0.0,VALID,99.208,VALID,0.03,VALID,20.769,VALID,9.0,VALID,0.0,
2019-04-23, 02:29:06,VALID,914.154,VALID,0.0,VALID,99.214,VALID,0.01,VALID,20.812,VALID,16.0,VALID,0.0,
2019-04-23, 02:30:06,VALID,914.136,VALID,0.0,VALID,99.211,VALID,-0.017,VALID,20.823,VALID,8.0,VALID,0.0,
2019-04-23, 02:31:06,VALID,914.127,VALID,0.0,VALID,99.123,VALID,-0.025,VALID,20.788,VALID,360.0,VALID,0.0,
2019-04-23, 02:32:06,VALID,914.089,VALID,0.0,VALID,99.072,VALID,-0.02,VALID,20.783,VALID,360.0,VALID,0.0,
2019-04-23, 02:33:06,VALID,914.097,VALID,0.0,VALID,98.99,VALID,-0.005,VALID,20.772,VALID,359.0,VALID,0.0,
2019-04-23, 02:34:06,VALID,914.096,VALID,0.0,VALID,98.949,VALID,-0.017,VALID,20.795,VALID,10.0,VALID,0.0,
2019-04-23, 02:35:06,VALID,914.114,VALID,0.0,VALID,98.894,VALID,-0.018,VALID,20.797,VALID,24.0,VALID,0.0,
2019-04-23, 02:36:06,VALID,914.125,VALID,0.0,VALID,98.872,VALID,-0.021,VALID,20.823,VALID,45.0,VALID,0.0,
2019-04-23, 02:37:06,VALID,914.117,VALID,0.0,VALID,98.817,VALID,-0.005,VALID,20.827,VALID,46.0,VALID,0.0,
2019-04-23, 02:38:06,VALID,914.137,VALID,0.0,VALID,98.792,VALID,-0.011,VALID,20.825,VALID,61.0,VALID,0.0,
2019-04-23, 02:39:06,VALID,914.128,VALID,0.0,VALID,98.726,VALID,-0.025,VALID,20.82,INVALID,360.0,VALID,0.0,
2019-04-23, 02:40:06,VALID,914.127,VALID,0.0,VALID,98.672,VALID,-0.025,VALID,20.815,VALID,86.0,VALID,0.0,
2019-04-23, 02:41:06,VALID,914.127,VALID,0.0,VALID,98.634,VALID,-0.036,VALID,20.818,VALID,88.0,VALID,0.0,
2019-04-23, 02:42:06,VALID,914.132,VALID,0.0,VALID,98.617,VALID,-0.023,VALID,20.827,VALID,91.0,VALID,0.0,
2019-04-23, 02:43:06,VALID,914.142,VALID,0.0,VALID,98.616,VALID,-0.009,VALID,20.844,VALID,129.0,VALID,0.0,
2019-04-23, 02:44:06,VALID,914.133,VALID,0.0,VALID,98.645,VALID,-0.014,VALID,20.889,VALID,140.0,VALID,0.0,
2019-04-23, 02:45:06,VALID,914.124,VALID,0.0,VALID,98.62,VALID,-0.006,VALID,20.906,INVALID,360.0,VALID,0.0,
2019-04-23, 02:46:06,VALID,914.094,VALID,0.0,VALID,98.535,VALID,0.004,VALID,20.914,INVALID,360.0,VALID,0.0,
2019-04-23, 02:47:06,VALID,914.092,VALID,0.0,VALID,98.563,VALID,0.001,VALID,20.924,INVALID,360.0,VALID,0.0,
2019-04-23, 02:48:06,VALID,914.1,VALID,0.0,VALID,98.608,VALID,-0.017,VALID,20.926,VALID,145.0,VALID,0.0,
2019-04-23, 02:49:06,VALID,914.117,VALID,0.0,VALID,98.638,VALID,-0.01,VALID,20.93,VALID,146.0,VALID,0.0,
2019-04-23, 02:50:06,VALID,914.129,VALID,0.0,VALID,98.693,VALID,-0.006,VALID,20.935,VALID,141.0,VALID,0.0,
2019-04-23, 02:51:06,VALID,914.117,VALID,0.0,VALID,98.752,VALID,-0.009,VALID,20.945,VALID,142.0,VALID,0.0,
2019-04-23, 02:52:06,VALID,914.095,VALID,0.0,VALID,98.763,VALID,-0.017,VALID,20.937,VALID,142.0,VALID,0.0,
2019-04-23, 02:53:06,VALID,914.092,VALID,0.0,VALID,98.807,VALID,0.002,VALID,20.935,VALID,142.0,VALID,0.0,
2019-04-23, 02:54:06,VALID,914.084,VALID,0.0,VALID,98.801,VALID,-0.006,VALID,20.928,VALID,142.0,VALID,0.0,
2019-04-23, 02:55:06,VALID,914.064,VALID,0.0,VALID,98.871,VALID,0.014,VALID,20.935,VALID,142.0,VALID,0.0,
2019-04-23, 02:56:06,VALID,914.07,VALID,0.0,VALID,98.897,VALID,0.007,VALID,20.956,VALID,142.0,VALID,0.0,
2019-04-23, 02:57:06,VALID,914.06,VALID,0.0,VALID,98.899,VALID,0.004,VALID,20.952,VALID,142.0,VALID,0.0,
2019-04-23, 02:58:06,VALID,914.07,VALID,0.0,VALID,98.922,VALID,0.006,VALID,20.961,VALID,140.0,VALID,0.0,
2019-04-23, 02:59:06,VALID,914.077,VALID,0.0,VALID,98.917,VALID,-0.004,VALID,20.956,VALID,139.0,VALID,0.0,
2019-04-23, 03:00:06,VALID,914.083,VALID,0.0,VALID,98.935,VALID,0.0,VALID,20.951,VALID,140.0,VALID,0.0,
2019-04-23, 03:01:06,VALID,914.087,VALID,0.0,VALID,98.964,VALID,0.01,VALID,20.962,INVALID,360.0,VALID,0.0,
2019-04-23, 03:02:06,VALID,914.084,VALID,0.0,VALID,98.96,VALID,0.007,VALID,20.955,INVALID,360.0,VALID,0.0,
2019-04-23, 03:03:06,VALID,914.092,VALID,0.0,VALID,98.984,VALID,0.008,VALID,20.947,INVALID,360.0,VALID,0.0,
2019-04-23, 03:04:06,VALID,914.076,VALID,0.0,VALID,99.012,VALID,0.013,VALID,20.941,INVALID,360.0,VALID,0.0,
2019-04-23, 03:05:06,VALID,914.07,VALID,0.0,VALID,99.051,VALID,0.012,VALID,20.95,INVALID,360.0,VALID,0.0,
2019-04-23, 03:06:06,VALID,914.034,VALID,0.0,VALID,99.086,VALID,0.018,VALID,20.956,INVALID,360.0,VALID,0.0,
2019-04-23, 03:07:06,VALID,914.004,VALID,0.0,VALID,99.095,VALID,0.008,VALID,20.944,INVALID,360.0,VALID,0.0,
2019-04-23, 03:08:06,VALID,913.977,VALID,0.0,VALID,99.114,VALID,0.007,VALID,20.934,INVALID,360.0,VALID,0.0,
2019-04-23, 03:09:06,VALID,913.973,VALID,0.0,VALID,99.134,VALID,0.012,VALID,20.929,INVALID,360.0,VALID,0.0,
2019-04-23, 03:10:06,VALID,913.969,VALID,0.0,VALID,99.159,VALID,-0.007,VALID,20.94,INVALID,360.0,VALID,0.0,
2019-04-23, 03:11:06,VALID,913.956,VALID,0.0,VALID,99.187,VALID,-0.009,VALID,20.953,INVALID,360.0,VALID,0.0,
2019-04-23, 03:12:06,VALID,913.951,VALID,0.0,VALID,99.181,VALID,0.002,VALID,20.962,INVALID,360.0,VALID,0.0,
2019-04-23, 03:13:06,VALID,913.957,VALID,0.0,VALID,99.224,VALID,0.004,VALID,20.963,INVALID,360.0,VALID,0.0,
2019-04-23, 03:14:06,VALID,913.985,VALID,0.0,VALID,99.246,VALID,0.006,VALID,20.981,INVALID,360.0,VALID,0.0,
2019-04-23, 03:15:06,VALID,914.02,VALID,0.0,VALID,99.264,VALID,0.01,VALID,20.994,INVALID,360.0,VALID,0.0,
2019-04-23, 03:16:06,VALID,914.026,VALID,0.0,VALID,99.258,VALID,0.001,VALID,20.989,VALID,123.0,VALID,0.0,
2019-04-23, 03:17:06,VALID,914.012,VALID,0.0,VALID,99.276,VALID,0.004,VALID,21.004,VALID,119.0,VALID,0.0,
2019-04-23, 03:18:06,VALID,914.042,VALID,0.0,VALID,99.273,VALID,-0.003,VALID,21.005,VALID,129.0,VALID,0.0,
2019-04-23, 03:19:06,VALID,914.04,VALID,0.0,VALID,99.273,VALID,-0.002,VALID,21.015,VALID,130.0,VALID,0.0,
2019-04-23, 03:20:06,VALID,914.045,VALID,0.0,VALID,99.256,VALID,-0.005,VALID,20.992,VALID,130.0,VALID,0.0,
2019-04-23, 03:21:06,VALID,914.056,VALID,0.0,VALID,99.273,VALID,-0.005,VALID,20.987,VALID,130.0,VALID,0.0,
2019-04-23, 03:22:06,VALID,914.056,VALID,0.0,VALID,99.278,VALID,0.014,VALID,20.99,VALID,130.0,VALID,0.0,
2019-04-23, 03:23:06,VALID,914.071,VALID,0.0,VALID,99.29,VALID,-0.006,VALID,20.987,VALID,130.0,VALID,0.0,
2019-04-23, 03:24:06,VALID,914.057,VALID,0.0,VALID,99.277,VALID,0.001,VALID,20.984,VALID,130.0,VALID,0.0,
2019-04-23, 03:25:06,VALID,914.049,VALID,0.0,VALID,99.295,VALID,-0.001,VALID,20.998,VALID,105.0,VALID,0.0,
2019-04-23, 03:26:06,VALID,914.057,VALID,0.0,VALID,99.301,VALID,0.013,VALID,21.003,VALID,60.0,VALID,0.0,
2019-04-23, 03:27:06,VALID,914.07,VALID,0.0,VALID,99.316,VALID,0.006,VALID,21.034,VALID,60.0,VALID,0.0,
2019-04-23, 03:28:06,VALID,914.064,VALID,0.0,VALID,99.329,VALID,-0.014,VALID,21.01,VALID,60.0,VALID,0.0,
2019-04-23, 03:29:06,VALID,914.07,VALID,0.0,VALID,99.322,VALID,-0.01,VALID,21.005,VALID,60.0,VALID,0.0,
2019-04-23, 03:30:06,VALID,914.079,VALID,0.0,VALID,99.328,VALID,-0.003,VALID,21.0,VALID,49.0,VALID,0.0,
2019-04-23, 03:31:06,VALID,914.065,VALID,0.0,VALID,99.301,VALID,-0.006,VALID,21.01,VALID,43.0,VALID,0.0,
2019-04-23, 03:32:06,VALID,914.057,VALID,0.0,VALID,99.329,VALID,-0.005,VALID,20.994,VALID,43.0,VALID,0.0,
2019-04-23, 03:33:06,VALID,914.056,VALID,0.0,VALID,99.35,VALID,-0.006,VALID,21.016,VALID,43.0,VALID,0.0,
2019-04-23, 03:34:06,VALID,914.059,VALID,0.0,VALID,99.327,VALID,-0.006,VALID,21.012,VALID,43.0,VALID,0.0,
2019-04-23, 03:35:06,VALID,914.036,VALID,0.0,VALID,99.324,VALID,-0.002,VALID,20.988,VALID,43.0,VALID,0.0,
2019-04-23, 03:36:06,VALID,914.039,VALID,0.0,VALID,99.325,VALID,-0.012,VALID,20.925,VALID,43.0,VALID,0.0,
2019-04-23, 03:37:06,VALID,914.036,VALID,0.0,VALID,99.311,VALID,-0.027,VALID,20.92,VALID,43.0,VALID,0.0,
2019-04-23, 03:38:06,VALID,914.03,VALID,0.0,VALID,99.331,VALID,-0.009,VALID,20.953,VALID,44.0,VALID,0.0,
2019-04-23, 03:39:06,VALID,914.011,VALID,0.0,VALID,99.357,VALID,-0.011,VALID,20.996,VALID,44.0,VALID,0.0,
2019-04-23, 03:40:06,VALID,914.012,VALID,0.0,VALID,99.366,VALID,-0.025,VALID,21.015,VALID,44.0,VALID,0.0,
2019-04-23, 03:41:06,VALID,914.013,VALID,0.0,VALID,99.357,VALID,-0.011,VALID,20.986,VALID,44.0,VALID,0.0,
2019-04-23, 03:42:06,VALID,913.994,VALID,0.0,VALID,99.345,VALID,-0.004,VALID,20.994,VALID,44.0,VALID,0.0,